Other Public Products
Issued by NWS Grand Forks, ND

Home | Current Version | Previous Version | Graphics & Text | Print | Product List | Glossary On
Versions: 1 2 3 4 5 6 7 8 9 10 11 12 13 14 15 16 17 18 19 20 21 22 23 24 25 26 27 28 29 30 31 32 33 34 35 36 37 38 39 40 41 42 43 44 45 46 47 48 49 50
000
FPUS83 KFGF 220610
OPUFGF
PRAIRIE TO PINES WEATHER ROUNDUP
NATIONAL WEATHER SERVICE EASTERN NORTH DAKOTA/GRAND FORKS ND
100 AM CDT TUE MAY 22 2018

 **SATELLITE DATA USED TO AUGMENT SKY COVER AT AUTOMATED STATIONS**
 *****  WEATHER ACROSS EASTERN NORTH DAKOTA  *****

CITY           SKY/WX    TMP DP  RH WIND       PRES   REMARKS
GRAND FORKS    FAIR      56  54  93 S9        29.94S
6HR MIN TEMP:  54; 6HR MAX TEMP:  75;

GRND FORKS AFB FAIR      59  56  91 S8        29.94S
GRND FORKS NWS   N/A     59  53  80 S6        29.93R
BUXTON           N/A     58  57  95 S5          N/A
DEVILS LAKE    FAIR      60  53  77 S8        29.94S
6HR MIN TEMP:  60; 6HR MAX TEMP:  73;

FARGO          FAIR      57  53  86 S10       29.97S
6HR MIN TEMP:  57; 6HR MAX TEMP:  69;

WAHPETON ARPT  CLOUDY    59  52  77 S8        29.99S
$$

 *****  WEATHER ACROSS CENTRAL AND WESTERN NORTH DAKOTA  *****

CITY           SKY/WX    TMP DP  RH WIND       PRES   REMARKS
JAMESTOWN      FAIR      58  55  90 S9        29.95S
6HR MIN TEMP:  57; 6HR MAX TEMP:  70;

BISMARCK       FAIR      55  52  89 E7        29.93S
6HR MIN TEMP:  55; 6HR MAX TEMP:  74;

MINOT          FAIR      62  51  67 SE7       29.89R
6HR MIN TEMP:  61; 6HR MAX TEMP:  79;

MINOT AFB      FAIR      56  48  73 S12       29.87R
6HR MIN TEMP:  56; 6HR MAX TEMP:  78;

GARRISON         N/A     53  47  79 CALM      29.91R
6HR MIN TEMP:  52; 6HR MAX TEMP:  75;

WILLISTON      FAIR      60  47  61 SE6       29.87R
6HR MIN TEMP:  52; 6HR MAX TEMP:  80; 6HR PCP: TRACE;

DICKINSON      FAIR      55  32  41 S8        29.90S
6HR MIN TEMP:  53; 6HR MAX TEMP:  76;

HETTINGER      FAIR      54  46  74 SE7       29.95R
6HR MIN TEMP:  53; 6HR MAX TEMP:  73;

$$

 *****  OTHER OBSERVATIONS NORTHEAST NORTH DAKOTA  *****

CITY           SKY/WX    TMP DP  RH WIND       PRES   REMARKS
WALHALLA       FAIR      59  45  58 S5        29.91S
LANGDON        FAIR      57  50  77 S12       29.94S
CAVALIER         N/A     55  46  71 S7        29.92S
GRAFTON        FAIR      54  52  94 S7        29.95S
CANDO          FAIR      55  55 100 S9        29.94S
FORT TOTTEN      N/A     59  53  81 S7        29.95S
ROLLA          FAIR      55  50  82 SW8       29.93R
RUGBY          NOT AVBL
 ***** THE ABOVE OBSERVATIONS ARE NON NWS ARE NOT QUALITY
        CONTROLLED AND MAY MIS-REPORT RAIN FOR SNOW...
$$

 *****  OTHER OBSERVATIONS SOUTHEAST NORTH DAKOTA *****

CITY           SKY/WX    TMP DP  RH WIND       PRES   REMARKS
COOPERSTOWN    FAIR      57  55  94 S9        29.96F
VALLEY CITY    FAIR      55  57 100 S8        29.98S
OAKES            N/A     52  52 100 S7        29.97S
GWINNER          N/A     52  52 100 CALM      29.97S
SHEYENNE NWR     N/A     51  51 100 SE3       29.95
BUFFALO          N/A     58  54  86 W9          N/A
WYNDMERE       NOT AVBL
 ***** THE ABOVE OBSERVATIONS ARE NON NWS ARE NOT QUALITY
       CONTROLLED AND MAY MIS-REPORT RAIN FOR SNOW...
$$

  *****  WEATHER ACROSS NORTHERN MINNESOTA  *****

CITY           SKY/WX    TMP DP  RH WIND       PRES   REMARKS
FLAG ISLAND    FAIR      59  45  58 SW12      29.93S
WARROAD        FAIR      55  45  67 S5        29.96S
ROSEAU         FAIR      52  45  76 S7        29.96S
HALLOCK        FAIR      54  43  66 S7        29.93S
THF RVR FALLS  FAIR      54  45  71 S8        29.98S
6HR MIN TEMP:  53; 6HR MAX TEMP:  75;

HALSTAD          N/A     56  52  84 S9          N/A
FOSSTON        FAIR      50  43  76 S5        29.99S
BAUDETTE       FAIR      50  45  83 SE5       29.97F
6HR MIN TEMP:  50; 6HR MAX TEMP:  74;

WASKISH        FAIR      48  43  81 CALM      29.99R
CROOKSTON      FAIR      57  52  82 S8        29.97S
$$
  *****  WEATHER ACROSS CENTRAL AND WEST MINNESOTA  *****

CITY           SKY/WX    TMP DP  RH WIND       PRES   REMARKS
BEMIDJI        FAIR      49  45  85 CALM      30.00R
6HR MIN TEMP:  49; 6HR MAX TEMP:  64;

PARK RAPIDS    CLOUDY    56  42  59 CALM      29.99S
6HR MIN TEMP:  55; 6HR MAX TEMP:  63;

WADENA         CLOUDY    55  45  67 SE3       30.00S
DETROIT LAKES  FAIR      54  46  76 SE5       30.00S
MOORHEAD       FAIR      55  52  88 S6        29.98S
FERGUS FALLS   CLOUDY    57  52  82 SE7       29.96S
ELBOW LAKE     CLOUDY    57  53  88 E3        30.00S
MORRIS MN      MOCLDY    57  57 100 SE5       29.99R FOG
STAPLES        CLOUDY    54  45  71 CALM      30.01R
WHEATON        MOCLDY    57  54  88 SE6       30.00S
$$
  *****  WEATHER ELSEWHERE ACROSS MINNESOTA  *****

CITY           SKY/WX    TMP DP  RH WIND       PRES   REMARKS
DULUTH         CLOUDY    55  41  59 VRB3      30.00F
6HR MIN TEMP:  54; 6HR MAX TEMP:  61; 6HR PCP: TRACE;

INTRNTL FALLS  FAIR      48  41  76 SW3       29.98S
6HR MIN TEMP:  48; 6HR MAX TEMP:  75;

ELY            FAIR      46  37  71 CALM      30.01S
CLOQUET        CLOUDY    54  46  76 CALM      30.01S
BRAINERD       CLOUDY    57  44  62 CALM      30.01R
6HR MIN TEMP:  56; 6HR MAX TEMP:  60;

HIBBING        MOCLDY    46  41  82 CALM      30.00S
6HR MIN TEMP:  46; 6HR MAX TEMP:  65;

ALEXANDRIA     CLOUDY    57  48  72 CALM      30.01S
6HR MIN TEMP:  57; 6HR MAX TEMP:  60;

SAINT CLOUD    CLOUDY    52  50  93 CALM      30.01S
6HR MIN TEMP:  52; 6HR MAX TEMP:  56;

MINNEAPOLIS    CLOUDY    59  55  87 S5        30.02R
6HR MIN TEMP:  59; 6HR MAX TEMP:  64;

$$

  *****  WEATHER ACROSS SOUTH DAKOTA  *****

CITY           SKY/WX    TMP DP  RH WIND       PRES   REMARKS
SIOUX FALLS    FAIR      53  53 100 CALM      29.99S FOG
6HR MIN TEMP:  53; 6HR MAX TEMP:  68;

BROOKINGS      FAIR      54  53  97 SE6       29.99S FOG
WATERTOWN      FAIR      55  55 100 SE3       29.98R FOG
6HR MIN TEMP:  53; 6HR MAX TEMP:  63;

HURON          FAIR      56  54  93 SE8       29.97R
6HR MIN TEMP:  56; 6HR MAX TEMP:  69;

SISSETON         N/A     55  54  96 S6        29.97S
ABERDEEN       FAIR      54  52  93 SE3       29.97R
6HR MIN TEMP:  53; 6HR MAX TEMP:  70;

MITCHELL       FAIR      58  55  90 SE6       29.97S
PIERRE         FAIR      56  51  84 E9        29.91S
6HR MIN TEMP:  56; 6HR MAX TEMP:  74;

MOBRIDGE       FAIR      53  49  86 CALM      29.91R
RAPID CITY     FAIR      56  50  80 CALM      29.92S
6HR MIN TEMP:  54; 6HR MAX TEMP:  73;

$$

  *****  SOME WEATHER IN NEARBY STATES *****

CITY           SKY/WX    TMP DP  RH WIND       PRES   REMARKS
GLASGOW MT     FAIR      66  49  54 NE13      29.85S
6HR MIN TEMP:  65; 6HR MAX TEMP:  81;

GREAT FALLS MT CLOUDY    60  50  69 S7        29.97R
6HR MIN TEMP:  59; 6HR MAX TEMP:  77;

CHEYENNE WY    FAIR      53  49  86 CALM      30.03F
6HR MIN TEMP:  51; 6HR MAX TEMP:  61; 6HR PCP:  0.03;

SCOTTSBLUFF NE FAIR      58  56  93 S5        29.95S
6HR MIN TEMP:  58; 6HR MAX TEMP:  70;

OMAHA NE       CLOUDY    63  56  78 SE6       29.99S
6HR MIN TEMP:  63; 6HR MAX TEMP:  76;

DES MOINES IA  MOCLDY    64  61  90 CALM      30.00S
6HR MIN TEMP:  64; 6HR MAX TEMP:  73;

DAVENPORT IA   CLOUDY    62  59  90 W10       30.03R
6HR MIN TEMP:  62; 6HR MAX TEMP:  70;

CHICAGO IL     FOG       54  53  97 N3        29.97S VSB 1/4
6HR MIN TEMP:  54; 6HR MAX TEMP:  63;

EAU CLAIRE WI  CLOUDY    55  54  96 E3        30.01S
6HR MIN TEMP:  55; 6HR MAX TEMP:  59; 6HR PCP: TRACE;

LA CROSSE WI   CLOUDY    58  56  93 E3        29.99S
6HR MIN TEMP:  59; 6HR MAX TEMP:  60; 6HR PCP:  0.06;

$$

  *****  SOME NATIONAL WEATHER *****

CITY           SKY/WX    TMP DP  RH WIND       PRES   REMARKS
LA GUARDIA NY  MOCLDY    65  44  46 S6        30.15F


USA.gov is the U.S. government's official web portal to all federal, state and local government web resources and services.